Location: Harwich
(41.7160°N, 69.9939°W)
Time: 09:47:26
(UTC+02:00)

A-11 Canister half - Pass Details

Date: 29 February 2024
Orbit: 1513 x 1686 km, 47.2° (Epoch: 24 April)

Event Time Altitude Azimuth Distance (km) Brightness Sun altitude
Exits shadow 06:08:50 12° 67° (ENE) 3,745 11.1 -55.9°
Drops below altitude 10° 06:09:25 10° 66° (ENE) 3,920 11.3 -55.9°
Sets 06:12:36 0° 63° (ENE) 4,893 11.9 -55.8°
